This is the latest recevied weather packets stored in our database for station/object OM6ACB-6. If no packets are shown the sender has not sent any weather packets the latest 10 day(s).
| Time | Temp. | Humidity | Pressure | Rain* | Wind** | Luminosity | Snow |
|---|---|---|---|---|---|---|---|
| 1788139941 | 11.67° C | 58% | 1020 hPa | 0 mm | - | - | - |
| 1788139341 | 11.11° C | 57% | 1020 hPa | 0 mm | - | - | - |
| 1788138740 | 10.56° C | 54% | 1020 hPa | 0 mm | - | - | - |
| 1788138140 | 11.11° C | 56% | 1020.1 hPa | 0 mm | - | - | - |
| 1788137540 | 11.67° C | 57% | 1020.1 hPa | 0 mm | - | - | - |
| 1788136940 | 11.67° C | 58% | 1020.3 hPa | 0 mm | - | - | - |
| 1788136339 | 11.67° C | 57% | 1020.2 hPa | 0 mm | - | - | - |
| 1788135739 | 11.67° C | 53% | 1020.2 hPa | 0 mm | - | - | - |
| 1788135139 | 11.67° C | 53% | 1020.3 hPa | 0 mm | - | - | - |
| 1788134539 | 12.22° C | 49% | 1020.3 hPa | 0 mm | - | - | - |
| 1788133938 | 12.22° C | 49% | 1020.3 hPa | 0 mm | - | - | - |
| 1788133338 | 11.67° C | 48% | 1020.3 hPa | 0 mm | - | - | - |
| 1788132738 | 11.67° C | 45% | 1020.3 hPa | 0 mm | - | - | - |
| 1788132137 | 12.22° C | 40% | 1020.3 hPa | 0 mm | - | - | - |
| 1788131537 | 12.22° C | 40% | 1020.4 hPa | 0 mm | - | - | - |
| 1788130937 | 12.22° C | 38% | 1020.4 hPa | 0 mm | - | - | - |
| 1788130336 | 12.22° C | 36% | 1020.5 hPa | 0 mm | - | - | - |
| 1788129736 | 12.78° C | 35% | 1020.5 hPa | 0 mm | - | - | - |
| 1788129136 | 12.22° C | 33% | 1020.5 hPa | 0 mm | - | - | - |
| 1788128536 | 12.78° C | 36% | 1020.5 hPa | 0 mm | - | - | - |
| 1788127935 | 12.78° C | 37% | 1020.6 hPa | 0 mm | - | - | - |
| 1788127337 | 12.78° C | 34% | 1020.5 hPa | 0 mm | - | - | - |
| 1788126735 | 12.78° C | 32% | 1020.6 hPa | 0 mm | - | - | - |
| 1788126134 | 13.33° C | 29% | 1020.5 hPa | 0 mm | - | - | - |
| 1788125534 | 13.33° C | 28% | 1020.5 hPa | 0 mm | - | - | - |
* Rain latest hour (hover to see other rain measurements)
** Current wind speed in m/s (hover to see current wind gust speed)